Regional Weather Roundup
Issued by NWS

Home | Current Version | Previous Version | Text Only | Print | Product List | Glossary Off
Versions: 1 2 3 4 5 6 7 8 9 10 11 12 13 14 15 16 17 18 19 20 21 22 23 24 25 26 27 28 29 30 31 32 33 34 35 36 37 38 39 40 41 42 43 44 45 46 47 48 49 50

000
ASUS45 KCYS 191810
RWRWY

WYOMING REGIONAL WEATHER ROUNDUP
NATIONAL WEATHER SERVICE CHEYENNE WY
1200 PM MDT THU OCT 19 2017

NOTE:  "FAIR" INDICATES FEW OR NO CLOUDS BELOW 12,000 FEET
WITH NO SIGNIFICANT WEATHER AND/OR OBSTRUCTIONS TO VISIBILITY.

WYZ001-191900-
YELLOWSTONE NATIONAL PARK

CITY           SKY/WX    TMP DP  RH WIND       PRES   REMARKS
LK YELLOWSTONE   N/A     50  27  40 CALM      30.09F
6HR MIN TEMP:  24; 6HR MAX TEMP:  50;

W YELLOWSTONE  NOT AVBL

$$
WYZ002>013-054>058-071-098>099-191900-
NORTHERN WYOMING

CITY           SKY/WX    TMP DP  RH WIND       PRES   REMARKS
JACKSON        FAIR      50  24  36 S5        30.07F
CODY           FAIR      69  20  15 SW13      29.91F
GREYBULL       FAIR      60  27  28 SE6       29.88F
6HR MIN TEMP:  33; 6HR MAX TEMP:  60;

WORLAND        FAIR      65  24  21 CALM      29.89F
6HR MIN TEMP:  29; 6HR MAX TEMP:  65;

SHERIDAN       FAIR      72  34  24 N5        29.81F
6HR MIN TEMP:  37; 6HR MAX TEMP:  72;

BUFFALO        FAIR      73  24  16 SE9       29.88F
6HR MIN TEMP:  45; 6HR MAX TEMP:  75;

GILLETTE       FAIR      72  24  16 S9G18     29.87F
6HR MIN TEMP:  41; 6HR MAX TEMP:  72;

HULETT         FAIR      72  27  18 W7        29.89F
NEWCASTLE      FAIR      68  18  14 SE9       29.94F

$$
WYZ014>020-022>026-101>103-191900-
CENTRAL WYOMING

CITY           SKY/WX    TMP DP  RH WIND       PRES   REMARKS
BIG PINEY      FAIR      47  19  33 CALM      30.12F
6HR MIN TEMP:  14; 6HR MAX TEMP:  47;

PINEDALE       FAIR      54  18  24 S3        30.13S
DUBOIS         FAIR      52  12  20 N7        30.06S
LANDER         FAIR      62  22  21 E5        29.98F
6HR MIN TEMP:  34; 6HR MAX TEMP:  62;

RIVERTON       FAIR      58  25  28 VRB3      29.99F
6HR MIN TEMP:  37; 6HR MAX TEMP:  58;

CASPER         FAIR      66  17  15 SW22      29.98F
6HR MIN TEMP:  39; 6HR MAX TEMP:  66;

DOUGLAS        FAIR      68  19  15 CALM      29.97F
6HR MIN TEMP:  29; 6HR MAX TEMP:  68;


$$
WYZ021-027>030-104>119-191900-
SOUTHERN WYOMING

CITY           SKY/WX    TMP DP  RH WIND       PRES   REMARKS
EVANSTON       FAIR      61  16  17 SW8       30.09F
6HR MIN TEMP:  39; 6HR MAX TEMP:  61;

KEMMERER       FAIR      59  16  18 CALM      30.12S
FORT BRIDGER   FAIR      55  16  21 N3        30.13F
ROCK SPRINGS   FAIR      56  14  19 CALM      30.11F
6HR MIN TEMP:  30; 6HR MAX TEMP:  56;

DIXON          FAIR      61  18  18 W7        30.14F
RAWLINS        FAIR      58  15  18 CALM      30.11F
6HR MIN TEMP:  25; 6HR MAX TEMP:  58;

SARATOGA       FAIR      64  14  14 SE13G18   30.13S
LARAMIE        FAIR      66  12  12 SW9       30.12F
6HR MIN TEMP:  27; 6HR MAX TEMP:  67;

CHEYENNE       FAIR      71  15  11 SE8       30.07F
6HR MIN TEMP:  39; 6HR MAX TEMP:  71;

TORRINGTON     FAIR      66  24  20 SE6       29.97F
6HR MIN TEMP:  32; 6HR MAX TEMP:  66;

PINE BLUFFS    FAIR      72  25  17 S9        30.04F

$$



USA.gov is the U.S. government's official web portal to all federal, state and local government web resources and services.